Regional Weather Roundup
Issued by NWS

Home | Current Version | Previous Version | Graphics & Text | Print | Product List | Glossary On
Versions: 1 2 3 4 5 6 7 8 9 10 11 12 13 14 15 16 17 18 19 20 21 22 23 24 25 26 27 28 29 30 31 32 33 34 35 36 37 38 39 40 41 42 43 44 45 46 47 48 49 50
817
ASUS44 KLIX 011410
RWRLA
LOUISIANA WEATHER ROUNDUP
NATIONAL WEATHER SERVICE NEW ORLEANS LA
900 AM CDT WED OCT 01 2014

NOTE: "FAIR" INDICATES FEW OR NO CLOUDS BELOW 12,000 FEET WITH NO
      SIGNIFICANT WEATHER AND/OR OBSTRUCTIONS TO VISIBILITY.
      SKY/WX - SKY CONDITION AND SIGNIFICANT WEATHER.
      TMP - AIR TEMPERATURE.    DP   - DEWPOINT TEMPERATURE.
      RH  - RELATIVE HUMIDITY.  PRES - PRESSURE.
      HX  - HEAT INDEX.         WCI  - WIND CHILL INDEX.

*  THESE STATIONS ARE NOT NWS OR FAA STATIONS AND ARE NOT UNDER
   NWS QUALITY CONTROL.

LAZ040-048-061>063-065-066-069-011500-
SOUTHEAST LOUISIANA

CITY           SKY/WX    TMP DP  RH WIND       PRES   REMARKS
N.O. AUDUBON   NOT AVBL
N.O. INTL ARPT PTSUNNY   81  72  74 SE8       29.92R
N.O. LAKEFRONT MOSUNNY   80  72  76 SE9       29.93R
N.O. DOWNTOWN* FAIR      81  70  69 SE7       29.93S
SLIDELL        SUNNY     77  72  84 E3        29.93R
BATON ROUGE    PTSUNNY   76  74  93 E6        29.92R
BOOTHVILLE     PTSUNNY   81  75  82 E7        29.93R
BELLE CHASSE   PTSUNNY   82  72  71 SE10      29.92R
BOGALUSA*      FAIR      74  71  89 SE3       29.96R
GALLIANO*      NOT AVBL
NEW ROADS*     PTSUNNY   77  73  88 E10G16    29.91R
GONZALES*      FAIR      77  77 100 CALM      29.92R
HAMMOND*       MOSUNNY   79  72  78 E6        29.95R
HOUMA*         PTSUNNY  N/A N/A N/A CALM      29.91R FOG
PORT FOURCHON* CLOUDY    75  72  88 S8        29.95R FOG

$$

LAZ041-044-053-054-011500-
SOUTHWEST LOUISIANA

CITY           SKY/WX    TMP DP  RH WIND       PRES   REMARKS
LAKE CHARLES   MOSUNNY   78  75  90 E7        29.87R
LAFAYETTE      RAIN      76  75  97 SE3       29.91R FOG
PATTERSON      CLOUDY    75  75 100 E8        29.93R
SALT POINT       N/A     80  77  90 CALM      29.90R
NEW IBERIA     HVY RAIN  77  75  93 S9        29.92R FOG
CHENAULT AIRPK PTSUNNY   77  75  94 E5        29.87R

$$

LAZ027-028-011500-
CENTRAL LOUISIANA

CITY           SKY/WX    TMP DP  RH WIND       PRES   REMARKS
FORT POLK      LGT RAIN  76  74  94 SE7       29.87S
ALEXANDRIA INT CLOUDY    76  74  93 SE10      29.87S FOG
ALEXANDRIA     CLOUDY    76  73  91 SE7       29.89S

$$

LAZ001-002-011500-
NORTHWEST LOUISIANA

CITY           SKY/WX    TMP DP  RH WIND       PRES   REMARKS
SHREVEPORT     PTSUNNY   75  73  93 S9        29.86R
BARKSDALE AFB  CLOUDY    75  74  96 S9        29.87R FOG
DTN SHREVEPORT CLOUDY    74  71  91 S8        29.87R FOG

$$

LAZ014-016-011500-
NORTHEAST LOUISIANA

CITY           SKY/WX    TMP DP  RH WIND       PRES   REMARKS
MONROE         PTSUNNY   77  73  87 S8        29.91R
TALLULAH       SUNNY     76  70  82 S9        29.92R

$$




USA.gov is the U.S. government's official web portal to all federal, state and local government web resources and services.